Overview Statistics Trail Chart Weather Telemetry Raw packets
 

This is the latest recevied weather packets stored in our database for station/object N4BBA. If no packets are shown the sender has not sent any weather packets the latest 10 day(s).

<< 44 45 46 47 48 49 50 >>
Time Temp. Humidity Pressure Rain* Wind** Luminosity Snow
1777381636 13.33° C 90% 1024.3 hPa 0 mm - 282 W/m² -
1777381332 12.78° C 92% 1024.3 hPa 0 mm - 254 W/m² -
1777381028 12.78° C 93% 1024.2 hPa 0 mm - 239 W/m² -
1777380725 12.22° C 94% 1024.4 hPa 0 mm - 380 W/m² -
1777380421 12.22° C 94% 1024.5 hPa 0 mm - 207 W/m² -
1777380118 11.67° C 95% 1024.5 hPa 0 mm - 297 W/m² -
1777379814 10.56° C 95% 1024.3 hPa 0 mm - 270 W/m² -
1777379510 10.56° C 95% 1024.5 hPa 0 mm - 139 W/m² -
1777379205 10° C 95% 1024.5 hPa 0 mm - 133 W/m² -
1777378900 10° C 96% 1024.4 hPa 0 mm - 141 W/m² -
1777378597 9.44° C 96% 1024.5 hPa 0 mm - 140 W/m² -
1777378293 8.89° C 96% 1024.6 hPa 0 mm - 127 W/m² -
1777377992 8.89° C 96% 1024.3 hPa 0 mm - 112 W/m² -
1777377692 8.89° C 96% 1024.3 hPa 0 mm - 103 W/m² -
1777377387 8.33° C 96% 1024 hPa 0 mm - 106 W/m² -
1777377084 7.78° C 96% 1023.9 hPa 0 mm - 86 W/m² -
1777376780 7.22° C 96% 1023.6 hPa 0 mm - 78 W/m² -
1777376478 6.67° C 96% 1023.1 hPa 0 mm - 75 W/m² -
1777376173 6.67° C 96% 1022.7 hPa 0 mm - 59 W/m² -
1777375869 6.11° C 95% 1022.7 hPa 0 mm - 56 W/m² -
1777375563 6.11° C 95% 1022.7 hPa 0 mm - 53 W/m² -
1777375259 5.56° C 95% 1022.6 hPa 0 mm - 49 W/m² -
1777374955 5.56° C 95% 1022.6 hPa 0 mm - 43 W/m² -
1777374652 5.56° C 95% 1022.1 hPa 0 mm - 36 W/m² -
1777374348 5° C 95% 1022.3 hPa 0 mm - 28 W/m² -

* Rain latest hour (hover to see other rain measurements)
** Current wind speed in m/s (hover to see current wind gust speed)